{"data":{"norad_id":56706,"epoch":"2026-05-25T05:17:39.744960Z","epoch_age_seconds":59421,"freshness":"FRESH","line1":"1 56706U 23067U   26145.22059890  .00000404  00000+0  24743-4 0  9996","line2":"2 56706  43.0027 209.1410 0001491 265.9512  94.1169 15.26749043167289","mean_motion":15.26749043,"eccentricity":0.0001491,"inclination_deg":43.0027,"raan_deg":209.141,"arg_perigee_deg":265.9512,"mean_anomaly_deg":94.1169,"bstar":2.4743e-5,"rev_number":16728,"period_min":94.318054863192,"perigee_km":484.51503468877,"apogee_km":486.56178269564,"semimajor_km":6863.6754086922,"source":"CELESTRAK","updated_at":"2026-05-25T13:38:18.122603Z"}}